Weather History for Juneau, WI

Change the Weather History Date:

Sunday, December 11, 2011

  Actual Average Record
Temperature  
Mean Temperature 32 °F -  
Max Temperature 42 °F 33 °F 50 °F (1979)
Min Temperature 23 °F 22 °F -15 °F (1972)
Degree Days  
Heating Degree Days 32    
Moisture  
Dew Point 22 °F    
Average Humidity 68    
Maximum Humidity 81    
Minimum Humidity 46    
Precipitation  
Precipitation 0.00 in - - ()
Sea Level Pressure  
Sea Level Pressure 30.27 in    
Wind  
Wind Speed 14 mph (South)    
Max Wind Speed 22 mph    
Max Gust Speed 26 mph    
Visibility 10 miles    
Events      
Averages and records for this station are not official NWS values.
T = Trace of Precipitation, MM = Missing Value Source: NWS Daily Summary

Daily Weather History Graph

Daily Weather History Graph

Search for Another Location

Airport:

Trip Planner

Search our weather history database for the weather conditions in past years. The results will help you decide how hot, cold, wet, or windy it might be!

Date:

Astronomy

Dec. 11, 2011 Rise Set
Actual Time 7:17 AM CST 4:18 PM CST
Civil Twilight 6:44 AM CST 4:51 PM CST
Nautical Twilight 6:08 AM CST 5:27 PM CST
Astronomical Twilight 5:34 AM CST 6:01 PM CST
Moon 5:28 PM CST (12/11) 8:05 AM CST (12/11)
Length of Visible Light 10h 06m
Length of Day
9h 01m
Full, 99% of the Moon is Illuminated
Dec 11
Full
Dec 17
Last Quarter
Dec 24
New
Jan 1
First Quarter
Jan 9
Full

Hourly Weather History & Observations

Time (CST) Temp. Windchill Dew Point Humidity Pressure Visibility Wind Dir Wind Speed Gust Speed Precip Events Conditions
12:15 AM 23.0 °F 11.1 °F 17.6 °F 80% 30.30 in 10.0 mi South 12.7 mph - N/A   Clear
12:35 AM 23.0 °F 10.6 °F 17.6 °F 80% 30.29 in 10.0 mi SSW 13.8 mph - N/A   Clear
12:55 AM 23.0 °F 10.6 °F 17.6 °F 80% 30.28 in 10.0 mi SSW 13.8 mph 18.4 mph N/A   Clear
1:15 AM 24.8 °F 12.9 °F 17.6 °F 74% 30.28 in 10.0 mi South 13.8 mph - N/A   Clear
1:35 AM 24.8 °F 14.0 °F 19.4 °F 80% 30.28 in 10.0 mi South 11.5 mph - N/A   Clear
1:55 AM 24.8 °F 12.9 °F 19.4 °F 80% 30.28 in 10.0 mi South 13.8 mph - N/A   Clear
2:15 AM 24.8 °F 14.0 °F 19.4 °F 80% 30.29 in 10.0 mi South 11.5 mph - N/A   Clear
2:35 AM 26.6 °F 16.2 °F 19.4 °F 74% 30.29 in 10.0 mi South 11.5 mph - N/A   Clear
2:55 AM 26.6 °F 15.7 °F 19.4 °F 74% 30.28 in 10.0 mi South 12.7 mph - N/A   Clear
3:15 AM 26.6 °F 15.2 °F 19.4 °F 74% 30.28 in 10.0 mi South 13.8 mph - N/A   Clear
3:35 AM 26.6 °F 15.2 °F 19.4 °F 74% 30.27 in 10.0 mi South 13.8 mph - N/A   Clear
4:15 AM 26.6 °F 16.2 °F 19.4 °F 74% 30.27 in 10.0 mi South 11.5 mph - N/A   Clear
4:35 AM 26.6 °F 15.7 °F 19.4 °F 74% 30.27 in 10.0 mi South 12.7 mph - N/A   Clear
4:55 AM 26.6 °F 16.8 °F 19.4 °F 74% 30.27 in 10.0 mi South 10.4 mph - N/A   Clear
5:15 AM 26.6 °F 15.2 °F 21.2 °F 80% 30.28 in 10.0 mi South 13.8 mph 18.4 mph N/A   Clear
5:35 AM 26.6 °F 15.7 °F 21.2 °F 80% 30.28 in 10.0 mi South 12.7 mph - N/A   Clear
5:55 AM 26.6 °F 15.7 °F 21.2 °F 80% 30.29 in 10.0 mi South 12.7 mph 17.3 mph N/A   Clear
6:15 AM 26.6 °F 14.7 °F 21.2 °F 80% 30.29 in 10.0 mi SSW 15.0 mph - N/A   Clear
6:35 AM 26.6 °F 14.3 °F 21.2 °F 80% 30.29 in 10.0 mi South 16.1 mph 20.7 mph N/A   Clear
6:55 AM 26.6 °F 15.2 °F 21.2 °F 80% 30.29 in 10.0 mi South 13.8 mph - N/A   Clear
7:15 AM 26.6 °F 14.7 °F 21.2 °F 80% 30.29 in 10.0 mi South 15.0 mph 18.4 mph N/A   Clear
7:35 AM 26.6 °F 14.7 °F 21.2 °F 80% 30.29 in 10.0 mi South 15.0 mph - N/A   Clear
7:55 AM 26.6 °F 14.7 °F 21.2 °F 80% 30.30 in 10.0 mi South 15.0 mph - N/A   Clear
8:15 AM 28.4 °F 17.5 °F 21.2 °F 74% 30.30 in 10.0 mi SSW 13.8 mph - N/A   Clear
8:35 AM 28.4 °F 16.6 °F 21.2 °F 74% 30.30 in 10.0 mi South 16.1 mph - N/A   Clear
8:55 AM 30.2 °F 20.2 °F 23.0 °F 75% 30.30 in 10.0 mi SSW 12.7 mph - N/A   Clear
9:15 AM 30.2 °F 18.9 °F 23.0 °F 75% 30.30 in 10.0 mi South 16.1 mph - N/A   Clear
9:35 AM 32.0 °F 22.1 °F 23.0 °F 69% 30.30 in 10.0 mi South 13.8 mph - N/A   Clear
9:55 AM 32.0 °F 21.6 °F 23.0 °F 69% 30.30 in 10.0 mi South 15.0 mph - N/A   Clear
10:15 AM 33.8 °F 24.3 °F 23.0 °F 65% 30.30 in 10.0 mi South 13.8 mph - N/A   Clear
10:35 AM 33.8 °F 23.5 °F 23.0 °F 65% 30.30 in 10.0 mi South 16.1 mph - N/A   Clear
10:55 AM 35.6 °F 25.9 °F 23.0 °F 60% 30.29 in 10.0 mi South 16.1 mph 19.6 mph N/A   Clear
11:15 AM 37.4 °F 27.8 °F 23.0 °F 56% 30.28 in 10.0 mi SSW 17.3 mph - N/A   Clear
11:35 AM 37.4 °F 26.6 °F 23.0 °F 56% 30.28 in 10.0 mi SSW 21.9 mph 26.5 mph N/A   Clear
11:55 AM 39.2 °F 30.8 °F 23.0 °F 52% 30.26 in 10.0 mi SSW 15.0 mph - N/A   Clear
12:15 PM 39.2 °F 29.6 °F 23.0 °F 52% 30.26 in 10.0 mi SSW 19.6 mph - N/A   Clear
12:35 PM 41.0 °F 33.9 °F 23.0 °F 49% 30.25 in 10.0 mi South 12.7 mph - N/A   Clear
12:55 PM 41.0 °F 32.5 °F 23.0 °F 49% 30.25 in 10.0 mi SSW 17.3 mph - N/A   Clear
1:15 PM 42.8 °F 34.3 °F 23.0 °F 46% 30.25 in 10.0 mi South 19.6 mph 24.2 mph N/A   Clear
1:35 PM 42.8 °F 35.4 °F 23.0 °F 46% 30.24 in 10.0 mi South 15.0 mph - N/A   Clear
2:15 PM 42.8 °F 35.1 °F 23.0 °F 46% 30.23 in 10.0 mi South 16.1 mph 21.9 mph N/A   Clear
2:35 PM 42.8 °F 35.4 °F 24.8 °F 49% 30.23 in 10.0 mi South 15.0 mph - N/A   Clear
2:55 PM 42.8 °F 35.4 °F 24.8 °F 49% 30.23 in 10.0 mi South 15.0 mph - N/A   Clear
3:15 PM 42.8 °F 36.6 °F 24.8 °F 49% 30.23 in 10.0 mi South 11.5 mph - N/A   Clear
3:35 PM 41.0 °F 33.1 °F 24.8 °F 53% 30.23 in 10.0 mi South 15.0 mph - N/A   Clear
3:55 PM 41.0 °F 33.1 °F 26.6 °F 57% 30.23 in 10.0 mi South 15.0 mph - N/A   Clear
4:15 PM 37.4 °F 29.8 °F 26.6 °F 65% 30.24 in 10.0 mi South 11.5 mph - N/A   Clear
4:35 PM 37.4 °F 29.3 °F 26.6 °F 65% 30.24 in 10.0 mi South 12.7 mph - N/A   Clear
4:55 PM 35.6 °F 27.5 °F 26.6 °F 70% 30.24 in 10.0 mi South 11.5 mph - N/A   Clear
5:15 PM 35.6 °F 28.6 °F 26.6 °F 70% 30.25 in 10.0 mi South 9.2 mph - N/A   Clear
5:35 PM 35.6 °F 27.5 °F 26.6 °F 70% 30.25 in 10.0 mi South 11.5 mph - N/A   Clear
5:55 PM 35.6 °F 28.0 °F 26.6 °F 70% 30.25 in 10.0 mi South 10.4 mph - N/A   Clear
6:15 PM 33.8 °F 26.4 °F 28.4 °F 81% 30.25 in 10.0 mi South 9.2 mph - N/A   Clear
6:35 PM 33.8 °F 26.4 °F 28.4 °F 81% 30.26 in 10.0 mi South 9.2 mph - N/A   Clear
6:55 PM 32.0 °F 24.2 °F 28.4 °F 87% 30.26 in 10.0 mi South 9.2 mph - N/A   Clear
7:15 PM 33.8 °F 26.4 °F 28.4 °F 81% 30.27 in 10.0 mi South 9.2 mph - N/A   Clear
8:15 PM 32.0 °F 23.6 °F 28.4 °F 87% 30.27 in 10.0 mi South 10.4 mph - N/A   Clear
8:35 PM 32.0 °F 21.6 °F 28.4 °F 87% 30.28 in 7.0 mi SSW 15.0 mph 20.7 mph N/A   Clear
8:55 PM 32.0 °F 22.1 °F 28.4 °F 87% 30.28 in 7.0 mi SSW 13.8 mph - N/A   Clear
9:15 PM 32.0 °F 22.1 °F 28.4 °F 87% 30.29 in 7.0 mi SSW 13.8 mph - N/A   Clear
9:35 PM 32.0 °F 23.0 °F 28.4 °F 87% 30.30 in 5.0 mi SW 11.5 mph - N/A   Clear
9:55 PM 32.0 °F 23.6 °F 30.2 °F 93% 30.30 in 5.0 mi SSW 10.4 mph - N/A   Mostly Cloudy
10:15 PM 32.0 °F 22.5 °F 30.2 °F 93% 30.30 in 5.0 mi SSW 12.7 mph - N/A   Overcast
10:35 PM 32.0 °F 23.6 °F 30.2 °F 93% 30.31 in 5.0 mi SSW 10.4 mph - N/A   Overcast
10:55 PM 32.0 °F 25.6 °F 30.2 °F 93% 30.30 in 5.0 mi South 6.9 mph - N/A   Overcast
11:15 PM 32.0 °F 25.6 °F 30.2 °F 93% 30.30 in 4.0 mi South 6.9 mph - N/A   Scattered Clouds
11:35 PM 30.2 °F 22.6 °F 30.2 °F 100% 30.30 in 4.0 mi SSE 8.1 mph - N/A   Scattered Clouds
11:55 PM 32.0 °F 24.8 °F 30.2 °F 93% 30.30 in 4.0 mi SSE 8.1 mph - N/A   Overcast